Wetterdaten: aktuell Sonntag, 24.09.2023 02:00
Datum Zeit Temp. 2 m Feuchte 2 m Luftdruck Regen Wind Richtung Richtung Taupunkt Windchill Windben
24.09.2023 02:00 9,1 C 81 % 1022,0 hPa 0,0 l/m 6,5 km/h (2 Bft) W-SW 247 6,0 C 9,1 C 8,6 km/h (2 Bft)
24.09.2023 01:55 9,1 C 81 % 1022,0 hPa 0,0 l/m 3,6 km/h (1 Bft) W 270 6,0 C 9,1 C 6,5 km/h (2 Bft)
24.09.2023 01:50 9,1 C 80 % 1022,0 hPa 0,0 l/m 6,5 km/h (2 Bft) W 270 5,8 C 9,1 C 8,6 km/h (2 Bft)
24.09.2023 01:45 9,0 C 80 % 1022,0 hPa 0,0 l/m 9,4 km/h (2 Bft) SW 225 5,7 C 6,9 C 13,3 km/h (3 Bft)
24.09.2023 01:40 9,1 C 80 % 1022,0 hPa 0,0 l/m 8,6 km/h (2 Bft) SW 225 5,8 C 7,5 C 13,3 km/h (3 Bft)
24.09.2023 01:35 9,1 C 80 % 1022,0 hPa 0,0 l/m 10,4 km/h (2 Bft) W-SW 247 5,8 C 6,4 C 11,2 km/h (2 Bft)
24.09.2023 01:30 9,0 C 80 % 1022,0 hPa 0,0 l/m 4,3 km/h (1 Bft) W-SW 247 5,7 C 9,0 C 6,5 km/h (2 Bft)
24.09.2023 01:25 9,1 C 80 % 1022,0 hPa 0,0 l/m 3,2 km/h (1 Bft) W-SW 247 5,8 C 9,1 C 6,5 km/h (2 Bft)
24.09.2023 01:20 9,1 C 80 % 1022,0 hPa 0,0 l/m 5,4 km/h (2 Bft) W-SW 247 5,8 C 9,1 C 6,5 km/h (2 Bft)
24.09.2023 01:15 9,1 C 80 % 1022,0 hPa 0,0 l/m 3,6 km/h (1 Bft) W-SW 247 5,8 C 9,1 C 6,5 km/h (2 Bft)
24.09.2023 01:10 9,1 C 80 % 1022,0 hPa 0,0 l/m 5,4 km/h (2 Bft) W 270 5,8 C 9,1 C 6,5 km/h (2 Bft)
24.09.2023 01:05 9,2 C 80 % 1022,0 hPa 0,0 l/m 2,9 km/h (1 Bft) W 270 5,9 C 9,2 C 8,6 km/h (2 Bft)
24.09.2023 01:00 9,2 C 80 % 1022,0 hPa 0,0 l/m 5,4 km/h (2 Bft) W-SW 247 5,9 C 9,2 C 6,5 km/h (2 Bft)
24.09.2023 00:55 9,2 C 80 % 1022,0 hPa 0,0 l/m 6,5 km/h (2 Bft) W-SW 247 5,9 C 9,2 C 11,2 km/h (2 Bft)
24.09.2023 00:50 9,2 C 80 % 1022,0 hPa 0,0 l/m 5,4 km/h (2 Bft) W-SW 247 5,9 C 9,2 C 6,5 km/h (2 Bft)
24.09.2023 00:45 9,2 C 80 % 1022,0 hPa 0,0 l/m 5,4 km/h (2 Bft) W 270 5,9 C 9,2 C 6,5 km/h (2 Bft)
24.09.2023 00:40 9,2 C 80 % 1022,0 hPa 0,0 l/m 5,4 km/h (2 Bft) W-SW 247 5,9 C 9,2 C 8,6 km/h (2 Bft)
24.09.2023 00:35 9,2 C 80 % 1022,0 hPa 0,0 l/m 7,2 km/h (2 Bft) W-SW 247 5,9 C 8,6 C 8,6 km/h (2 Bft)
24.09.2023 00:30 9,1 C 79 % 1022,0 hPa 0,0 l/m 6,5 km/h (2 Bft) W-SW 247 5,7 C 9,1 C 8,6 km/h (2 Bft)
24.09.2023 00:25 9,1 C 79 % 1022,0 hPa 0,0 l/m 6,1 km/h (2 Bft) W 270 5,7 C 9,1 C 6,5 km/h (2 Bft)
24.09.2023 00:20 9,1 C 79 % 1022,0 hPa 0,0 l/m 6,1 km/h (2 Bft) W-SW 247 5,7 C 9,1 C 11,2 km/h (2 Bft)
24.09.2023 00:15 9,1 C 79 % 1022,0 hPa 0,0 l/m 4,3 km/h (1 Bft) W-SW 247 5,7 C 9,1 C 6,5 km/h (2 Bft)
24.09.2023 00:10 9,1 C 79 % 1022,0 hPa 0,0 l/m 5,4 km/h (2 Bft) W 270 5,7 C 9,1 C 8,6 km/h (2 Bft)
24.09.2023 00:05 9,1 C 79 % 1022,0 hPa 0,0 l/m 4,7 km/h (1 Bft) W-SW 247 5,7 C 9,1 C 8,6 km/h (2 Bft)
24.09.2023 00:00 9,1 C 79 % 1021,0 hPa 0,0 l/m 5,4 km/h (2 Bft) W-SW 247 5,7 C 9,1 C 6,5 km/h (2 Bft)
23.09.2023 23:55 9,2 C 78 % 1021,0 hPa 0,0 l/m 4,7 km/h (1 Bft) W-SW 247 5,6 C 9,2 C 6,5 km/h (2 Bft)
23.09.2023 23:50 9,2 C 78 % 1021,0 hPa 0,0 l/m 2,9 km/h (1 Bft) W 270 5,6 C 9,2 C 6,5 km/h (2 Bft)
23.09.2023 23:45 9,3 C 78 % 1021,0 hPa 0,0 l/m 2,9 km/h (1 Bft) W 270 5,7 C 9,3 C 4,3 km/h (1 Bft)
23.09.2023 23:40 9,4 C 78 % 1021,0 hPa 0,0 l/m 4,3 km/h (1 Bft) W 270 5,8 C 9,4 C 4,3 km/h (1 Bft)
23.09.2023 23:35 9,4 C 78 % 1021,0 hPa 0,0 l/m 1,8 km/h (1 Bft) W 270 5,8 C 9,4 C 4,3 km/h (1 Bft)
23.09.2023 23:30 9,5 C 78 % 1021,0 hPa 0,0 l/m 2,2 km/h (1 Bft) W-NW 292 5,9 C 9,5 C 4,3 km/h (1 Bft)
23.09.2023 23:25 9,5 C 78 % 1021,0 hPa 0,0 l/m 4,7 km/h (1 Bft) W-NW 292 5,9 C 9,5 C 6,5 km/h (2 Bft)
23.09.2023 23:20 9,6 C 78 % 1021,0 hPa 0,0 l/m 3,2 km/h (1 Bft) W 270 6,0 C 9,6 C 6,5 km/h (2 Bft)
23.09.2023 23:15 9,6 C 78 % 1021,0 hPa 0,0 l/m 2,9 km/h (1 Bft) W 270 6,0 C 9,6 C 6,5 km/h (2 Bft)
23.09.2023 23:10 9,6 C 77 % 1021,0 hPa 0,0 l/m 4,0 km/h (1 Bft) W 270 5,8 C 9,6 C 4,3 km/h (1 Bft)
23.09.2023 23:05 9,7 C 77 % 1021,0 hPa 0,0 l/m 2,9 km/h (1 Bft) W 270 5,9 C 9,7 C 4,3 km/h (1 Bft)
23.09.2023 23:00 9,7 C 77 % 1021,0 hPa 0,0 l/m 4,0 km/h (1 Bft) W-NW 292 5,9 C 9,7 C 4,3 km/h (1 Bft)
23.09.2023 22:55 9,8 C 77 % 1021,0 hPa 0,0 l/m 3,2 km/h (1 Bft) W 270 6,0 C 9,8 C 4,3 km/h (1 Bft)
23.09.2023 22:50 9,9 C 76 % 1021,0 hPa 0,0 l/m 0,0 km/h (0 Bft) W-SW 247 5,9 C 9,9 C 0,0 km/h (0 Bft)
23.09.2023 22:45 10,0 C 76 % 1021,0 hPa 0,0 l/m 2,2 km/h (1 Bft) W-SW 247 6,0 C 10,0 C 4,3 km/h (1 Bft)
23.09.2023 22:40 10,0 C 76 % 1021,0 hPa 0,0 l/m 2,2 km/h (1 Bft) W 270 6,0 C 10,0 C 4,3 km/h (1 Bft)
23.09.2023 22:35 10,1 C 76 % 1021,0 hPa 0,0 l/m 2,5 km/h (1 Bft) W-SW 247 6,1 C 10,1 C 4,3 km/h (1 Bft)
23.09.2023 22:30 10,2 C 76 % 1021,0 hPa 0,0 l/m 5,8 km/h (2 Bft) W-SW 247 6,2 C 10,2 C 8,6 km/h (2 Bft)
23.09.2023 22:25 10,2 C 76 % 1020,0 hPa 0,0 l/m 4,3 km/h (1 Bft) W 270 6,2 C 10,2 C 8,6 km/h (2 Bft)
23.09.2023 22:20 10,2 C 76 % 1020,0 hPa 0,0 l/m 4,0 km/h (1 Bft) W 270 6,2 C 10,2 C 6,5 km/h (2 Bft)
23.09.2023 22:15 10,2 C 75 % 1020,0 hPa 0,0 l/m 5,0 km/h (1 Bft) W-SW 247 6,0 C 10,2 C 6,5 km/h (2 Bft)
23.09.2023 22:10 10,2 C 75 % 1020,0 hPa 0,0 l/m 5,8 km/h (2 Bft) W-SW 247 6,0 C 10,2 C 6,5 km/h (2 Bft)
23.09.2023 22:05 10,3 C 75 % 1020,0 hPa 0,0 l/m 2,9 km/h (1 Bft) W 270 6,1 C 10,3 C 4,3 km/h (1 Bft)
23.09.2023 22:00 10,4 C 75 % 1020,0 hPa 0,0 l/m 2,9 km/h (1 Bft) W 270 6,2 C 10,4 C 4,3 km/h (1 Bft)
23.09.2023 21:55 10,4 C 74 % 1020,0 hPa 0,0 l/m 2,2 km/h (1 Bft) W-SW 247 6,0 C 10,4 C 4,3 km/h (1 Bft)
23.09.2023 21:50 10,5 C 74 % 1020,0 hPa 0,0 l/m 4,0 km/h (1 Bft) W 270 6,1 C 10,5 C 4,3 km/h (1 Bft)
23.09.2023 21:45 10,6 C 74 % 1020,0 hPa 0,0 l/m 2,9 km/h (1 Bft) W 270 6,2 C 10,6 C 4,3 km/h (1 Bft)
23.09.2023 21:40 10,6 C 73 % 1020,0 hPa 0,0 l/m 4,0 km/h (1 Bft) W-SW 247 6,0 C 10,6 C 6,5 km/h (2 Bft)
23.09.2023 21:35 10,8 C 73 % 1020,0 hPa 0,0 l/m 2,5 km/h (1 Bft) W-SW 247 6,2 C 10,8 C 4,3 km/h (1 Bft)
23.09.2023 21:30 10,9 C 72 % 1020,0 hPa 0,0 l/m 3,2 km/h (1 Bft) W-SW 247 6,1 C 10,9 C 4,3 km/h (1 Bft)
23.09.2023 21:25 11,0 C 72 % 1020,0 hPa 0,0 l/m 3,6 km/h (1 Bft) W 270 6,2 C 11,0 C 6,5 km/h (2 Bft)
23.09.2023 21:20 11,1 C 72 % 1020,0 hPa 0,0 l/m 2,2 km/h (1 Bft) W 270 6,2 C 11,1 C 4,3 km/h (1 Bft)
23.09.2023 21:15 11,2 C 72 % 1020,0 hPa 0,0 l/m 0,7 km/h (0 Bft) SW 225 6,3 C 11,2 C 2,2 km/h (1 Bft)
23.09.2023 21:10 11,4 C 71 % 1020,0 hPa 0,0 l/m 1,8 km/h (1 Bft) W-SW 247 6,3 C 11,4 C 2,2 km/h (1 Bft)
23.09.2023 21:05 11,6 C 72 % 1020,0 hPa 0,0 l/m 2,5 km/h (1 Bft) SW 225 6,7 C 11,6 C 4,3 km/h (1 Bft)
23.09.2023 21:00 11,6 C 71 % 1020,0 hPa 0,0 l/m 4,3 km/h (1 Bft) W-SW 247 6,5 C 11,6 C 4,3 km/h (1 Bft)
_ Min-Zeit 01:30 17:10 03:00 - 22:50 - - 23:50 07:30 22:50
Minimum _ 9,0 C 57 % 1008,0 hPa - 0,0 km/h (0 Bft) - - 5,6 C 6,0 C 0,0 km/h (0 Bft)
_ Max-Zeit 14:40 05:00 00:05 03:00 08:30 - - 12:45 14:45 08:30
Maximum _ 16,9 C 81 % 1022,0 hPa 0,0 l/m 21,2 km/h
S-SW (4 Bft)
- - 9,9 C 16,9 C 31,0 km/h
S-SW (5 Bft)
Durchschnitt _ 13,1 C 72 % 1015,0 hPa #0,0 l/m 6,0 km/h (2 Bft) W - 8,0 C 12,6 C 9,5 km/h (2 Bft)